This demonstration page uses our WeatherBlox Daily Observations layout. Learn more.

Left ArrowRight Arrow

Hourly Observations for March 6, 2022

Temp ( °F °C ) Dew Point ( °F °C ) Humidity (%) Winds ( mph kmh ) Pressure ( in mb ) Visibility ( mi km ) Precip ( " mm )
12:59 am 00:59 Partly Cloudy 65 18.3 59 15 81 81 SSW 15 24 30.29 1026 9 14 0.00 0.00
1:59 am 01:59 Mostly Cloudy 65 18.3 60 15.6 84 84 SSW 14 22 30.29 1026 9 14 0.00 0.00
2:59 am 02:59 Mostly Cloudy 65 18.3 60 15.6 84 84 SSW 13 20 30.28 1025 9 14 0.00 0.00
3:59 am 03:59 Cloudy 65 18.3 60 15.6 84 84 SW 10 17 30.29 1026 9 14 0.00 0.00
4:59 am 04:59 Cloudy 65 18.3 60 15.6 84 84 SSW 12 19 30.31 1026 9 14 0.00 0.00
5:59 am 05:59 Mostly Cloudy 65 18.3 60 15.6 84 84 SSW 10 17 30.31 1026 9 14 0.00 0.00
6:59 am 06:59 Mostly Cloudy 65 18.3 60 15.6 84 84 SSW 12 19 30.29 1026 8 13 0.00 0.00
7:59 am 07:59 Mostly Cloudy 66 18.9 60 15.6 81 81 SSW 13 20 30.29 1026 8 13 0.00 0.00
8:59 am 08:59 Mostly Cloudy 69 20.6 60 15.6 73 73 SSW 17 28 30.29 1026 9 14 0.00 0.00
9:59 am 09:59 Cloudy 71 21.7 60 15.6 68 68 SW 15 24 30.28 1025 10 16 0.00 0.00
10:59 am 10:59 Cloudy 72 22.2 60 15.6 66 66 SW 15 24 30.26 1025 10 16 0.00 0.00
11:59 am 11:59 Mostly Cloudy 75 23.9 59 15 58 58 SW 15 24 30.24 1024 10 16 0.00 0.00
12:59 pm 12:59 Mostly Cloudy 78 25.6 57 13.9 48 48 SW 22 35 30.19 1023 10 16 0.00 0.00
1:59 pm 13:59 Mostly Cloudy 78 25.6 56 13.3 47 47 SW 15 24 30.16 1021 10 16 0.00 0.00
2:59 pm 14:59 Mostly Cloudy 80 26.7 55 12.8 42 42 SW 17 28 30.14 1021 10 16 0.00 0.00
3:59 pm 15:59 Mostly Cloudy 79 26.1 53 11.7 41 41 SW 15 24 30.13 1020 10 16 0.00 0.00
4:59 pm 16:59 Cloudy 78 25.6 53 11.7 42 42 SW 9 15 30.13 1020 10 16 0.00 0.00
5:59 pm 17:59 Mostly Cloudy 77 25 53 11.7 43 43 SW 9 15 30.14 1021 10 16 0.00 0.00
6:59 pm 18:59 Mostly Clear 75 23.9 53 11.7 46 46 SSW 9 15 30.14 1021 10 16 0.00 0.00
7:59 pm 19:59 Clear 75 23.9 52 11.1 45 45 SW 8 13 30.14 1021 10 16 0.00 0.00
8:59 pm 20:59 Mostly Clear 72 22.2 56 13.3 57 57 S 10 17 30.14 1021 10 16 0.00 0.00
9:59 pm 21:59 Mostly Clear 71 21.7 60 15.6 68 68 SSW 13 20 30.15 1021 10 16 0.00 0.00
10:59 pm 22:59 Clear 70 21.1 60 15.6 71 71 SW 13 20 30.14 1021 10 16 0.00 0.00
11:59 pm 23:59 Clear 69 20.6 60 15.6 73 73 SSW 13 20 30.14 1021 10 16 0.00 0.00

Powered by AerisWeather